Airfield :
LOGIN :

Register | Disclaimer

   EN    FR    IT 

 










Legend :    VFR   Marginal VFR   IFR   Intensive IFR   Very Intensive IFR
Visi :
Ceiling :
>= 8 km
>= 3000ft
5 to 8 km
1000 to 3000 ft
1500m to 5 km
500 to 1000 ft
800 to 1500m
200 to 500 ft
< 800m
< 200 ft
Symbols :   Thunderstorms  Fog  Heavy snow  Heavy precipitations  Wind > 20 kt
SIGMETs :     Misc.  Thunderstorms  Icing  Turbulence  Mountain Waves  Volcanic Ashes







- Airport Elevation : 15 ft
- IATA code : BHD
- Download approach charts


EGAC - George Best Belfast City

CURRENT METAR :
  • 221220Z AUTO 02011KT 9999 NCD 15/07 Q1019

EXPIRED METARs :
  • 221150Z AUTO 03011KT 9999 SCT045/// 15/07 Q1019
  • 221120Z AUTO 02009KT 9999 BKN043/// 14/06 Q1019
  • 221050Z AUTO 02005KT 320V050 9999 FEW045/// 15/06 Q1019
  • 221020Z AUTO 01005KT 340V050 9999 NCD 13/04 Q1019
  • 220950Z AUTO 02005KT 310V080 9999 NCD 14/05 Q1019

TAF TAF EGAC
Valid from the 22 at 12:00 until the 22 at 21:00 UTC


221101Z 2212/2221 04009KT 9999 FEW035
ATIS : +44 02890 935 124
No reported NOTAMs for that airfield.



MET'MAP, your aeronautical weather chart ! - Copyright ORBIFLY December 2007 - Disclaimer

ORBIFLY MET'MAP TEAM :

Programming & Development : Alexandra Zaïnal
Concept & Development : Baudouin d'Aumeries
Co-Development & Prog : Marc-Olivier Méhu
Technical & hardware support : Manuel Goepfert

Contact : metmap@orbifly.com




SOURCES & CREDITS :

   NOAA